Orbital elements: 2011 DU PHA, Earth MOID = 0.0177 AU Epoch 2011 Feb. 8.0 TT = JDT 2455600.5 MPC M 240.25279 (2000.0) P Q n 0.77586198 Peri. 120.09607 +0.45629245 +0.88982590 a 1.1729506 Node 177.04823 -0.83314922 +0.42827529 e 0.3193207 Incl. 2.96083 -0.31250533 +0.15744887 P 1.27 H 21.0 G 0.15 U 8